^^
WoodinvilleWX Historical Data
 
Daily Summary for October 18, 2019 Units:  English    Metric   Both
Daily Weekly Monthly Yearly Custom
  Current: High: Low: Average:
Temperature: 46.7 °F 50.4 °F 46.7 °F 49 °F
Dew Point: 45.62 °F 47.57 °F 43.99 °F 46 °F
Humidity: 96% 96% 82% 89%
Wind Speed: 2mph 7mph 0mph 1mph
Wind Gust: 2mph 10mph - -
WindSE - - SE
Pressure: 29.78 in 29.92 in 29.76 in -
Precipitation: 0.11 in      
Historical Graphs
 
 
Tabular Data for October 18, 2019
Time Temperature Dew Point Pressure Wind Wind Speed Wind Gust Humidity Rainfall Rate (Hourly)
00:01 50.1 °F 46.99 °F 29.76 in Calm   2 mph 89% 0 in
00:05 50 °F 46.89 °F 29.76 in Calm   2 mph 89% 0 in
00:10 49.9 °F 46.79 °F 29.76 in SSW 1 mph 9 mph 89% 0 in
00:15 49.9 °F 47.09 °F 29.76 in Calm   1 mph 90% 0 in
00:20 49.9 °F 47.38 °F 29.76 in Calm   1 mph 91% 0 in
00:25 49.8 °F 47.28 °F 29.77 in Calm     91% 0 in
00:30 49.7 °F 46.89 °F 29.77 in Calm   1 mph 90% 0 in
00:35 49.7 °F 46.89 °F 29.78 in Calm   1 mph 90% 0 in
00:40 49.7 °F 46.89 °F 29.78 in Calm   2 mph 90% 0 in
00:45 49.7 °F 46.89 °F 29.78 in Calm   2 mph 90% 0 in
00:50 49.7 °F 46.89 °F 29.79 in SE 1 mph 1 mph 90% 0 in
00:55 49.8 °F 46.99 °F 29.79 in Calm   1 mph 90% 0 in
01:00 49.8 °F 47.28 °F 29.79 in Calm     91% 0 in
01:05 49.8 °F 47.57 °F 29.79 in ESE 1 mph 1 mph 92% 0 in
01:10 49.7 °F 47.47 °F 29.80 in Calm   1 mph 92% 0 in
01:15 49.7 °F 47.18 °F 29.80 in Calm   1 mph 91% 0 in
01:20 49.6 °F 46.5 °F 29.80 in ESE 1 mph 1 mph 89% 0 in
01:25 49.7 °F 46.89 °F 29.80 in Calm   1 mph 90% 0 in
01:30 49.7 °F 46.89 °F 29.80 in SE 1 mph 3 mph 90% 0 in
01:35 49.7 °F 46.6 °F 29.80 in Calm   2 mph 89% 0 in
01:40 49.8 °F 46.69 °F 29.80 in Calm   2 mph 89% 0 in
01:45 49.9 °F 47.09 °F 29.80 in SE 1 mph 1 mph 90% 0 in
01:50 49.9 °F 47.09 °F 29.80 in SE 2 mph 3 mph 90% 0 in
01:55 49.9 °F 47.09 °F 29.80 in Calm   2 mph 90% 0 in
02:00 49.9 °F 47.38 °F 29.81 in WNW 1 mph 4 mph 91% 0 in
02:05 49.9 °F 47.09 °F 29.81 in Calm   2 mph 90% 0 in
02:10 49.9 °F 47.38 °F 29.81 in Calm   1 mph 91% 0 in
02:15 49.9 °F 47.09 °F 29.82 in Calm   2 mph 90% 0 in
02:20 49.9 °F 47.09 °F 29.82 in Calm   6 mph 90% 0 in
02:25 49.8 °F 46.99 °F 29.82 in Calm   1 mph 90% 0 in
02:30 49.9 °F 47.09 °F 29.82 in Calm   1 mph 90% 0 in
02:35 49.7 °F 46.6 °F 29.83 in SE 1 mph 7 mph 89% 0 in
02:40 49.7 °F 46.6 °F 29.83 in Calm   2 mph 89% 0 in
02:45 49.7 °F 46.6 °F 29.83 in Calm   1 mph 89% 0 in
02:50 49.6 °F 46.5 °F 29.83 in Calm   2 mph 89% 0 in
02:55 49.6 °F 46.2 °F 29.83 in Calm   2 mph 88% 0 in
03:00 49.6 °F 46.2 °F 29.83 in Calm   5 mph 88% 0 in
03:05 49.5 °F 46.4 °F 29.83 in ESE 1 mph 4 mph 89% 0 in
03:10 49.5 °F 46.4 °F 29.83 in Calm   3 mph 89% 0 in
03:15 49.4 °F 46.3 °F 29.84 in Calm   2 mph 89% 0 in
03:20 49.4 °F 46.3 °F 29.84 in Calm   1 mph 89% 0 in
03:25 49.3 °F 46.2 °F 29.84 in ESE 1 mph 3 mph 89% 0 in
03:30 49.3 °F 46.2 °F 29.85 in Calm   3 mph 89% 0 in
03:35 49.3 °F 46.2 °F 29.85 in ESE 1 mph 2 mph 89% 0 in
03:40 49.2 °F 46.1 °F 29.85 in Calm   2 mph 89% 0 in
03:45 49.2 °F 45.8 °F 29.85 in ESE 1 mph 3 mph 88% 0 in
03:50 49.2 °F 46.1 °F 29.85 in Calm   2 mph 89% 0 in
03:55 49.1 °F 46 °F 29.86 in Calm   5 mph 89% 0 in
04:00 49.1 °F 45.71 °F 29.86 in Calm   2 mph 88% 0 in
04:05 49.1 °F 45.71 °F 29.86 in East 1 mph 2 mph 88% 0 in
04:10 49.1 °F 46 °F 29.87 in Calm   1 mph 89% 0 in
04:15 49 °F 45.61 °F 29.87 in Calm   5 mph 88% 0 in
04:20 49 °F 45.61 °F 29.87 in Calm   4 mph 88% 0 in
04:25 49 °F 45.91 °F 29.87 in SE 1 mph 1 mph 89% 0 in
04:30 49 °F 45.91 °F 29.87 in Calm   4 mph 89% 0 in
04:35 48.9 °F 45.81 °F 29.87 in Calm   2 mph 89% 0 in
04:40 48.9 °F 45.81 °F 29.88 in NE 1 mph 5 mph 89% 0 in
04:45 48.9 °F 45.51 °F 29.88 in ESE 2 mph 5 mph 88% 0 in
04:50 48.9 °F 45.51 °F 29.88 in Calm   4 mph 88% 0 in
04:55 48.8 °F 45.41 °F 29.88 in ENE 1 mph 4 mph 88% 0 in
05:00 48.8 °F 45.71 °F 29.88 in Calm   1 mph 89% 0 in
05:05 48.7 °F 45.31 °F 29.88 in ESE 1 mph 2 mph 88% 0 in
05:10 48.7 °F 45.31 °F 29.88 in Calm   2 mph 88% 0 in
05:15 48.6 °F 44.91 °F 29.88 in ESE 1 mph 1 mph 87% 0 in
05:20 48.6 °F 44.91 °F 29.89 in SE 2 mph 4 mph 87% 0 in
05:25 48.5 °F 44.81 °F 29.88 in Calm   4 mph 87% 0 in
05:30 48.5 °F 44.81 °F 29.88 in Calm   5 mph 87% 0 in
05:35 48.5 °F 44.81 °F 29.88 in Calm   3 mph 87% 0 in
05:40 48.5 °F 44.81 °F 29.88 in SE 1 mph 2 mph 87% 0 in
05:45 48.4 °F 44.72 °F 29.88 in Calm   2 mph 87% 0 in
05:50 48.4 °F 45.02 °F 29.89 in Calm   1 mph 88% 0 in
05:55 48.4 °F 45.02 °F 29.89 in Calm   1 mph 88% 0 in
06:00 48.4 °F 44.72 °F 29.89 in Calm   2 mph 87% 0 in
06:05 48.3 °F 44.92 °F 29.89 in SE 1 mph 2 mph 88% 0 in
06:10 48.3 °F 44.62 °F 29.89 in ESE 1 mph 2 mph 87% 0 in
06:15 48.3 °F 44.62 °F 29.89 in Calm   4 mph 87% 0 in
06:20 48.3 °F 44.92 °F 29.89 in ESE 1 mph 4 mph 88% 0 in
06:25 48.4 °F 44.72 °F 29.89 in Calm   6 mph 87% 0 in
06:30 48.4 °F 44.72 °F 29.89 in Calm   2 mph 87% 0 in
06:35 48.4 °F 45.02 °F 29.89 in Calm     88% 0 in
06:40 48.4 °F 45.02 °F 29.90 in ESE 1 mph 1 mph 88% 0 in
06:45 48.4 °F 45.02 °F 29.89 in SSW 2 mph 6 mph 88% 0 in
06:50 48.5 °F 44.81 °F 29.89 in SSE 1 mph 2 mph 87% 0 in
06:55 48.5 °F 44.81 °F 29.90 in Calm   2 mph 87% 0 in
07:00 48.5 °F 45.11 °F 29.90 in Calm   1 mph 88% 0 in
07:05 48.5 °F 45.11 °F 29.90 in Calm   1 mph 88% 0 in
07:10 48.5 °F 44.81 °F 29.90 in ESE 1 mph 2 mph 87% 0 in
07:15 48.6 °F 44.91 °F 29.90 in Calm   4 mph 87% 0 in
07:20 48.6 °F 44.61 °F 29.90 in SE 1 mph 3 mph 86% 0 in
07:25 48.6 °F 44.61 °F 29.90 in Calm   2 mph 86% 0 in
07:30 48.7 °F 44.71 °F 29.90 in Calm   2 mph 86% 0 in
07:35 48.7 °F 44.71 °F 29.90 in Calm   3 mph 86% 0 in
07:40 48.7 °F 44.71 °F 29.90 in Calm   5 mph 86% 0 in
07:45 48.7 °F 44.4 °F 29.90 in SSW 1 mph 2 mph 85% 0 in
07:50 48.7 °F 44.4 °F 29.90 in Calm   1 mph 85% 0 in
07:55 48.7 °F 44.4 °F 29.90 in SSE 2 mph 6 mph 85% 0 in
08:00 48.6 °F 43.99 °F 29.90 in SSE 2 mph 3 mph 84% 0 in
08:05 48.7 °F 44.09 °F 29.89 in East 2 mph 5 mph 84% 0 in
08:10 48.6 °F 43.99 °F 29.89 in SE 2 mph 5 mph 84% 0 in
08:15 48.6 °F 43.99 °F 29.89 in Calm   5 mph 84% 0 in
08:20 48.6 °F 43.99 °F 29.89 in ESE 1 mph 5 mph 84% 0 in
08:25 48.6 °F 44.3 °F 29.89 in SE 1 mph 2 mph 85% 0 in
08:30 48.6 °F 44.3 °F 29.89 in Calm   2 mph 85% 0 in
08:35 48.6 °F 44.61 °F 29.90 in SE 1 mph 3 mph 86% 0 in
08:40 48.6 °F 44.61 °F 29.90 in Calm   2 mph 86% 0 in
08:45 48.6 °F 44.61 °F 29.90 in SE 2 mph 5 mph 86% 0 in
08:50 48.6 °F 44.3 °F 29.90 in SE 5 mph 6 mph 85% 0 in
08:55 48.7 °F 44.4 °F 29.90 in South 1 mph 5 mph 85% 0 in
09:00 48.8 °F 44.81 °F 29.91 in SE 1 mph 3 mph 86% 0 in
09:05 48.9 °F 44.6 °F 29.91 in SSE 2 mph 2 mph 85% 0 in
09:10 48.9 °F 44.9 °F 29.91 in South 2 mph 4 mph 86% 0 in
09:15 49 °F 45 °F 29.91 in SSE 5 mph 7 mph 86% 0 in
09:20 49.1 °F 45.1 °F 29.91 in SSE 2 mph 6 mph 86% 0 in
09:25 49.2 °F 44.89 °F 29.91 in ESE 3 mph 7 mph 85% 0 in
09:30 49.3 °F 44.68 °F 29.91 in SE 2 mph 5 mph 84% 0 in
09:35 49.4 °F 45.09 °F 29.91 in SE 1 mph 6 mph 85% 0 in
09:40 49.5 °F 45.19 °F 29.91 in Calm   5 mph 85% 0 in
09:45 49.6 °F 44.97 °F 29.91 in SE 6 mph 6 mph 84% 0 in
09:50 49.6 °F 44.97 °F 29.91 in Calm   6 mph 84% 0 in
09:55 49.6 °F 44.34 °F 29.92 in SE 1 mph 5 mph 82% 0 in
10:00 49.7 °F 44.76 °F 29.92 in Calm   2 mph 83% 0 in
10:05 49.8 °F 44.53 °F 29.92 in ESE 2 mph 5 mph 82% 0 in
10:10 49.9 °F 44.95 °F 29.92 in Calm   6 mph 83% 0 in
10:15 50 °F 45.05 °F 29.92 in ESE 1 mph 7 mph 83% 0 in
10:20 50.1 °F 45.15 °F 29.92 in SE 2 mph 5 mph 83% 0 in
10:25 49.9 °F 45.58 °F 29.92 in SE 1 mph 6 mph 85% 0 in
10:30 49.7 °F 45.07 °F 29.92 in ENE 4 mph 8 mph 84% 0 in
10:35 49.7 °F 45.69 °F 29.92 in Calm   4 mph 86% 0 in
10:40 49.7 °F 45.69 °F 29.92 in ESE 3 mph 6 mph 86% 0 in
10:45 49.7 °F 45.38 °F 29.92 in ESE 1 mph 6 mph 85% 0 in
10:50 49.7 °F 45.69 °F 29.92 in SSE 1 mph 5 mph 86% 0 in
10:55 49.6 °F 45.59 °F 29.92 in SSE 4 mph 6 mph 86% 0 in
11:00 49.5 °F 45.49 °F 29.92 in SE 3 mph 7 mph 86% 0 in
11:05 49.5 °F 45.49 °F 29.91 in Calm   4 mph 86% 0 in
11:10 49.6 °F 45.59 °F 29.91 in ESE 1 mph 4 mph 86% 0 in
11:15 49.8 °F 45.79 °F 29.91 in NNE 1 mph 5 mph 86% 0 in
11:20 49.9 °F 45.27 °F 29.92 in ENE 1 mph 5 mph 84% 0 in
11:25 50 °F 45.36 °F 29.92 in SE 2 mph 5 mph 84% 0 in
11:30 49.9 °F 45.58 °F 29.91 in ESE 2 mph 6 mph 85% 0 in
11:35 49.9 °F 45.89 °F 29.91 in Calm   5 mph 86% 0 in
11:40 49.9 °F 45.27 °F 29.91 in SE 3 mph 5 mph 84% 0 in
11:45 49.9 °F 45.58 °F 29.91 in Calm   5 mph 85% 0 in
11:50 49.9 °F 45.27 °F 29.91 in SSE 1 mph 4 mph 84% 0 in
11:55 49.9 °F 44.95 °F 29.91 in ESE 7 mph 7 mph 83% 0 in
12:00 49.9 °F 44.95 °F 29.91 in SSE 4 mph 7 mph 83% 0 in
12:05 49.9 °F 45.27 °F 29.91 in ESE 2 mph 6 mph 84% 0 in
12:10 49.9 °F 44.95 °F 29.91 in SE 1 mph 4 mph 83% 0 in
12:15 49.9 °F 44.95 °F 29.91 in SSE 2 mph 8 mph 83% 0 in
12:20 49.9 °F 44.95 °F 29.91 in SE 2 mph 7 mph 83% 0 in
12:25 50 °F 45.36 °F 29.92 in ENE 2 mph 5 mph 84% 0 in
12:30 50 °F 45.05 °F 29.92 in ESE 2 mph 6 mph 83% 0 in
12:35 50.1 °F 45.15 °F 29.92 in South 1 mph 6 mph 83% 0 in
12:40 50.3 °F 45.34 °F 29.92 in SSE 4 mph 9 mph 83% 0 in
12:45 50.3 °F 45.66 °F 29.91 in ESE 2 mph 6 mph 84% 0 in
12:50 50.4 °F 45.76 °F 29.91 in SSE 2 mph 6 mph 84% 0 in
12:55 50.4 °F 45.76 °F 29.91 in ESE 4 mph 5 mph 84% 0 in
13:00 50.4 °F 45.44 °F 29.91 in ESE 1 mph 1 mph 83% 0 in
13:05 50.4 °F 45.76 °F 29.91 in East 2 mph 5 mph 84% 0 in
13:10 50.4 °F 45.76 °F 29.90 in SSE 3 mph 8 mph 84% 0 in
13:15 50.4 °F 45.76 °F 29.90 in SSE 3 mph 5 mph 84% 0 in
13:20 50.3 °F 45.66 °F 29.90 in East 1 mph 7 mph 84% 0 in
13:25 50.3 °F 45.66 °F 29.90 in SE 1 mph 8 mph 84% 0 in
13:30 50.3 °F 45.66 °F 29.90 in East 2 mph 5 mph 84% 0 in
13:35 50.3 °F 45.66 °F 29.90 in SE 2 mph 5 mph 84% 0 in
13:40 50.2 °F 45.56 °F 29.90 in SSE 1 mph 10 mph 84% 0 in
13:45 50.2 °F 45.56 °F 29.90 in SSE 1 mph 7 mph 84% 0 in
13:50 50.2 °F 45.56 °F 29.90 in ESE 1 mph 6 mph 84% 0 in
13:55 50.2 °F 45.56 °F 29.90 in East 4 mph 7 mph 84% 0 in
14:00 50.1 °F 45.46 °F 29.90 in SE 2 mph 6 mph 84% 0 in
14:05 50.1 °F 45.46 °F 29.90 in ESE 1 mph 7 mph 84% 0 in
14:10 50.1 °F 45.46 °F 29.90 in SE 1 mph 6 mph 84% 0 in
14:15 50.1 °F 45.77 °F 29.90 in SSE 2 mph 8 mph 85% 0 in
14:20 50.1 °F 45.77 °F 29.90 in SSE 2 mph 4 mph 85% 0 in
14:25 50.1 °F 45.77 °F 29.90 in ESE 1 mph 6 mph 85% 0 in
14:30 50.2 °F 45.87 °F 29.90 in SE 1 mph 6 mph 85% 0 in
14:35 50.2 °F 45.87 °F 29.90 in SSE 1 mph 5 mph 85% 0 in
14:40 50.3 °F 45.97 °F 29.90 in Calm   3 mph 85% 0 in
14:45 50.4 °F 46.07 °F 29.89 in SSE 1 mph 7 mph 85% 0 in
14:50 50.3 °F 46.28 °F 29.89 in SSE 1 mph 6 mph 86% 0 in
14:55 50.3 °F 46.28 °F 29.89 in SE 1 mph 6 mph 86% 0 in
15:00 50.3 °F 46.28 °F 29.89 in South 1 mph 9 mph 86% 0 in
15:05 50.3 °F 46.58 °F 29.89 in SE 4 mph 5 mph 87% 0 in
15:10 50.3 °F 46.58 °F 29.89 in SE 1 mph 6 mph 87% 0 in
15:15 50.3 °F 46.28 °F 29.89 in SE 2 mph 4 mph 86% 0 in
15:20 50.3 °F 46.58 °F 29.89 in SE 2 mph 4 mph 87% 0 in
15:25 50.3 °F 46.58 °F 29.89 in SE 1 mph 6 mph 87% 0 in
15:30 50.2 °F 46.49 °F 29.89 in WSW 1 mph 4 mph 87% 0 in
15:35 50.2 °F 46.49 °F 29.89 in ESE 4 mph 6 mph 87% 0 in
15:40 50.2 °F 46.79 °F 29.89 in South 1 mph 6 mph 88% 0 in
15:45 50.2 °F 46.49 °F 29.89 in Calm   2 mph 87% 0 in
15:50 50.1 °F 46.99 °F 29.89 in SSE 2 mph 5 mph 89% 0 in
15:55 49.9 °F 47.09 °F 29.89 in Calm   7 mph 90% 0 in
16:00 49.9 °F 47.09 °F 29.89 in SSE 1 mph 4 mph 90% 0 in
16:05 49.8 °F 47.28 °F 29.89 in SE 1 mph 2 mph 91% 0 in
16:10 49.7 °F 46.89 °F 29.89 in ESE 1 mph 3 mph 90% 0 in
16:15 49.7 °F 47.18 °F 29.89 in SE 1 mph 6 mph 91% 0 in
16:20 49.8 °F 47.28 °F 29.89 in SE 1 mph 2 mph 91% 0 in
16:25 49.7 °F 47.18 °F 29.89 in Calm   3 mph 91% 0 in
16:30 49.7 °F 47.47 °F 29.89 in South 6 mph 6 mph 92% 0 in
16:35 49.7 °F 47.18 °F 29.89 in ESE 2 mph 6 mph 91% 0 in
16:40 49.6 °F 46.79 °F 29.89 in SE 1 mph 3 mph 90% 0 in
16:45 49.7 °F 47.18 °F 29.88 in SSE 2 mph 5 mph 91% 0 in
16:50 49.7 °F 47.18 °F 29.88 in SE 1 mph 2 mph 91% 0 in
16:55 49.7 °F 47.18 °F 29.88 in SSE 1 mph 5 mph 91% 0 in
17:00 49.7 °F 47.18 °F 29.88 in Calm   2 mph 91% 0 in
17:05 49.6 °F 47.09 °F 29.88 in Calm   2 mph 91% 0 in
17:10 49.5 °F 46.99 °F 29.88 in Calm   3 mph 91% 0 in
17:15 49.4 °F 47.18 °F 29.88 in SE 1 mph 3 mph 92% 0 in
17:20 49.4 °F 47.47 °F 29.88 in SE 1 mph 2 mph 93% 0.01 in
17:25 49.2 °F 47.27 °F 29.88 in Calm   2 mph 93% 0.01 in
17:30 49 °F 47.07 °F 29.88 in SSE 1 mph 2 mph 93% 0.02 in
17:35 48.9 °F 47.25 °F 29.88 in SSE 1 mph 2 mph 94% 0.03 in
17:40 48.8 °F 47.15 °F 29.88 in Calm   2 mph 94% 0.04 in
17:45 48.7 °F 47.34 °F 29.88 in SE 1 mph 2 mph 95% 0.05 in
17:50 48.6 °F 47.24 °F 29.88 in SSE 1 mph 2 mph 95% 0.06 in
17:55 48.6 °F 47.24 °F 29.87 in SSE 1 mph 3 mph 95% 0.07 in
18:00 48.5 °F 47.14 °F 29.87 in SSE 2 mph 4 mph 95% 0.08 in
18:05 48.5 °F 47.14 °F 29.86 in ESE 1 mph 2 mph 95% 0.09 in
18:10 48.4 °F 47.32 °F 29.86 in Calm   2 mph 96% 0.09 in
18:15 48.4 °F 47.04 °F 29.86 in Calm   2 mph 95% 0.09 in
18:20 48.3 °F 46.94 °F 29.86 in SSE 1 mph 3 mph 95% 0.09 in
18:25 48.3 °F 46.94 °F 29.86 in SSE 1 mph 1 mph 95% 0.08 in
18:30 48.2 °F 46.84 °F 29.86 in Calm   3 mph 95% 0.08 in
18:35 48.1 °F 46.74 °F 29.86 in Calm   2 mph 95% 0.07 in
18:40 48.1 °F 46.74 °F 29.86 in Calm   2 mph 95% 0.06 in
18:45 48 °F 46.92 °F 29.86 in Calm   2 mph 96% 0.06 in
18:50 48 °F 46.92 °F 29.86 in Calm   1 mph 96% 0.05 in
18:55 48 °F 46.92 °F 29.86 in SE 1 mph 2 mph 96% 0.04 in
19:00 47.9 °F 46.82 °F 29.85 in Calm   1 mph 96% 0.03 in
19:05 47.9 °F 46.82 °F 29.86 in Calm   2 mph 96% 0.02 in
19:10 47.9 °F 46.82 °F 29.86 in SSE 1 mph 2 mph 96% 0.01 in
19:15 47.9 °F 46.82 °F 29.85 in Calm   1 mph 96% 0.01 in
19:20 48 °F 46.92 °F 29.85 in SE 2 mph 2 mph 96% 0.01 in
19:25 47.9 °F 46.82 °F 29.85 in SE 2 mph 2 mph 96% 0.01 in
19:30 47.8 °F 46.72 °F 29.85 in Calm   2 mph 96% 0.01 in
19:35 47.8 °F 46.72 °F 29.85 in SE 1 mph 1 mph 96% 0.02 in
19:40 47.8 °F 46.72 °F 29.85 in SE 2 mph 3 mph 96% 0.02 in
19:45 47.6 °F 46.52 °F 29.85 in SE 1 mph 2 mph 96% 0.02 in
19:50 47.6 °F 46.52 °F 29.85 in SE 1 mph 4 mph 96% 0.01 in
19:55 47.6 °F 46.52 °F 29.85 in Calm   2 mph 96% 0.01 in
20:00 47.5 °F 46.42 °F 29.85 in Calm   2 mph 96% 0.01 in
20:05 47.4 °F 46.32 °F 29.85 in SSE 2 mph 3 mph 96% 0.01 in
20:10 47.4 °F 46.32 °F 29.85 in ESE 2 mph 4 mph 96% 0.01 in
20:15 47.3 °F 46.22 °F 29.85 in SSE 1 mph 3 mph 96% 0.01 in
20:20 47.3 °F 46.22 °F 29.84 in SE 1 mph 5 mph 96% 0.01 in
20:25 47.3 °F 46.22 °F 29.84 in SE 1 mph 5 mph 96% 0.01 in
20:30 47.2 °F 46.12 °F 29.84 in Calm   5 mph 96% 0.01 in
20:35 47.2 °F 46.12 °F 29.84 in Calm   2 mph 96% 0.01 in
20:40 47.1 °F 46.02 °F 29.84 in SW 2 mph 5 mph 96% 0 in
20:45 47.1 °F 46.02 °F 29.84 in Calm   2 mph 96% 0 in
20:50 47.1 °F 46.02 °F 29.84 in SSE 1 mph 5 mph 96% 0 in
20:55 47.2 °F 46.12 °F 29.84 in Calm   3 mph 96% 0 in
21:00 47.2 °F 46.12 °F 29.84 in Calm   4 mph 96% 0 in
21:05 47.2 °F 46.12 °F 29.84 in Calm   4 mph 96% 0 in
21:10 47.3 °F 46.22 °F 29.83 in SE 1 mph 4 mph 96% 0 in
21:15 47.3 °F 46.22 °F 29.83 in Calm   5 mph 96% 0 in
21:20 47.4 °F 46.32 °F 29.83 in Calm   3 mph 96% 0 in
21:25 47.3 °F 46.22 °F 29.83 in SE 3 mph 5 mph 96% 0 in
21:30 47.4 °F 46.32 °F 29.83 in ESE 1 mph 3 mph 96% 0 in
21:35 47.4 °F 46.32 °F 29.83 in SSE 1 mph 2 mph 96% 0 in
21:40 47.4 °F 46.32 °F 29.83 in Calm   4 mph 96% 0 in
21:45 47.4 °F 46.32 °F 29.83 in Calm   2 mph 96% 0 in
21:50 47.4 °F 46.32 °F 29.83 in Calm   1 mph 96% 0 in
21:55 47.4 °F 46.32 °F 29.82 in Calm   4 mph 96% 0 in
22:00 47.4 °F 46.32 °F 29.82 in Calm   2 mph 96% 0 in
22:05 47.4 °F 46.32 °F 29.82 in Calm   2 mph 96% 0 in
22:10 47.4 °F 46.32 °F 29.81 in Calm   2 mph 96% 0 in
22:15 47.4 °F 46.32 °F 29.81 in SE 1 mph 3 mph 96% 0 in
22:20 47.4 °F 46.32 °F 29.81 in Calm   1 mph 96% 0 in
22:25 47.4 °F 46.32 °F 29.80 in Calm     96% 0 in
22:30 47.3 °F 46.22 °F 29.80 in Calm   1 mph 96% 0 in
22:35 47.3 °F 46.22 °F 29.80 in Calm   1 mph 96% 0 in
22:40 47.2 °F 46.12 °F 29.79 in Calm   1 mph 96% 0 in
22:45 47.2 °F 46.12 °F 29.79 in Calm   1 mph 96% 0 in
22:50 47.1 °F 46.02 °F 29.79 in Calm   1 mph 96% 0 in
22:55 47 °F 45.92 °F 29.79 in Calm   5 mph 96% 0 in
23:00 47 °F 45.92 °F 29.78 in SSE 5 mph 5 mph 96% 0 in
23:05 46.9 °F 45.82 °F 29.78 in SE 1 mph 5 mph 96% 0 in
23:10 46.8 °F 45.72 °F 29.78 in Calm   4 mph 96% 0 in
23:15 46.8 °F 45.72 °F 29.78 in SE 1 mph 2 mph 96% 0 in
23:20 46.8 °F 45.72 °F 29.78 in Calm   2 mph 96% 0 in
23:25 46.8 °F 45.72 °F 29.79 in SSE 2 mph 2 mph 96% 0 in
23:30 46.7 °F 45.62 °F 29.78 in Calm   4 mph 96% 0 in
23:35 46.7 °F 45.62 °F 29.78 in SE 2 mph 2 mph 96% 0 in
Woodinville, Washington USA
Compliments of Weather Underground - 4 mb